User: anonymous   Login
Location: *
(51.5000°N, 0.1100°W)
Time: 06:10:04
(UTC+00:00)
Language:

CZ-2C R/B - Orbit

View from above orbital plane
View from above orbital plane
View from above satellite
View from above satellite

Ground track
Ground track

The orbit data is extracted from the following two-line orbital elements,

1 36089U 09061B   24205.41445907  .00001615  00000-0  40281-3 0  9990
2 36089  98.3608 171.0731 0079724   5.8529 354.3579 14.51101538777411
Epoch (UTC): 23 July 2024 09:56:49
Eccentricity: 0.0079724
inclination: 98.3608°
perigee height: 665 km
apogee height: 778 km
right ascension of ascending node: 171.0731°
argument of perigee: 5.8529°
revolutions per day: 14.51101538
mean anomaly at epoch: 354.3579°
orbit number at epoch: 77741

The dashed part of the orbit path shows where the satellite is in the earth's shadow,  

DLR